Wind_Speed
8 9 10 10 10 12 14 15 16 17 18 20 21 23 24 25 28 30 31 33 35 37 37 38 38 39 39 40 42 43 44 44 45 44 44 43 42 41 41 40 40 39 39 40
8 10 11 12 12 13 15 16 18 19 20 22 23 24 25 27 29 30 31 33 36 37 38 38 39 40 41 42 43 44 46 46 46 46 44 43 42 41 40 40 39 39 40 40
8 10 11 12 13 13 14 16 19 20 22 23 24 25 25 27 29 30 31 34 36 37 38 39 40 41 42 43 45 46 47 47 47 46 45 44 42 41 41 40 39 39 39 39
10 10 11 12 14 15 16 18 19 20 22 24 26 25 25 27 29 30 32 35 37 38 39 40 41 42 43 44 46 47 48 48 48 47 45 44 43 42 41 40 39 39 38 39
11 12 12 13 14 15 17 19 20 23 25 26 26 26 26 28 30 31 33 36 37 39 40 41 42 42 43 45 46 48 49 49 48 47 46 45 43 42 41 40 39 38 38 39
13 13 12 11 12 16 19 21 22 24 25 26 27 27 28 29 30 32 34 36 38 39 40 41 42 43 44 45 47 48 49 49 48 48 46 45 43 42 40 39 38 38 38 38
15 16 16 16 17 19 21 23 23 23 24 25 26 27 28 29 31 33 35 37 38 40 41 42 43 44 45 46 47 48 49 49 49 48 46 45 43 42 40 39 38 38 38 36
20 21 22 21 22 22 23 23 23 23 23 24 25 27 28 30 32 34 36 37 39 41 42 42 43 44 45 46 47 48 48 49 49 48 46 44 43 41 40 39 38 37 36 35
23 23 23 24 25 25 25 25 24 24 23 24 26 27 29 31 33 35 37 38 39 41 42 43 43 44 45 46 47 48 48 48 48 48 46 44 42 40 39 38 37 36 34 32
26 25 25 26 26 27 26 26 25 24 24 25 27 28 30 32 35 36 38 39 40 42 42 43 43 44 45 46 47 48 48 48 48 47 45 43 42 40 38 38 36 34 32 31
26 26 25 25 25 26 27 27 26 26 26 27 28 30 32 34 37 38 39 41 42 42 42 42 43 44 45 45 46 47 47 47 47 46 44 42 40 39 38 37 35 32 31 29
27 26 26 26 26 27 28 29 29 29 29 29 30 32 34 37 39 40 41 42 43 43 43 43 44 44 45 45 46 47 47 46 46 45 43 41 39 38 38 36 34 31 30 28
28 28 28 28 29 29 30 31 32 32 32 32 33 35 37 39 41 42 43 43 44 44 44 44 45 45 45 46 46 47 46 45 44 44 42 40 38 37 35 34 32 31 29 28
29 29 30 30 30 31 31 32 33 33 34 35 37 38 40 41 42 43 44 44 45 45 45 45 46 47 47 46 46 46 45 44 43 42 41 39 37 36 34 32 31 29 28 26
29 30 31 31 32 32 33 33 34 35 37 38 40 40 41 41 43 44 45 46 47 47 47 47 48 48 48 46 46 45 44 43 42 41 39 37 35 34 32 31 29 28 26 25
30 31 32 32 33 34 35 37 38 40 41 42 42 43 43 43 44 46 47 48 49 49 48 50 50 50 48 46 45 44 43 42 40 39 37 35 34 32 30 29 27 26 25 24
31 32 33 34 35 37 39 41 42 43 44 45 45 46 47 47 47 48 50 51 51 51 51 52 51 49 47 45 44 43 42 40 38 37 35 33 32 30 28 26 26 26 25 23
33 34 36 37 39 41 43 44 46 47 47 48 48 49 49 50 50 52 53 52 52 52 52 52 50 50 48 46 44 43 40 38 36 35 33 32 29 28 26 24 24 24 24 23
37 39 40 42 44 45 47 48 49 50 51 52 52 52 52 53 54 55 55 54 53 52 52 51 50 49 47 45 43 40 37 35 34 32 31 29 27 25 24 23 22 23 23 22
42 43 44 45 47 49 50 51 52 53 53 54 55 56 56 57 57 57 56 54 52 51 50 49 48 47 45 42 39 37 35 33 31 30 29 27 25 23 22 21 20 21 21 21
47 47 48 49 50 51 53 54 55 55 56 57 59 59 59 58 57 56 54 52 50 49 48 46 45 43 40 39 37 34 32 30 29 27 27 25 23 21 20 19 19 18 19 19
50 50 50 51 52 54 56 57 58 59 59 60 60 60 59 57 55 53 51 49 47 46 44 43 40 39 37 35 33 32 31 29 27 25 25 23 21 19 18 17 16 16 17 17
51 52 53 54 56 57 58 59 60 60 60 59 59 57 56 54 51 49 47 46 44 43 41 39 37 35 34 33 31 30 28 27 25 24 23 21 19 17 16 15 14 14 15 15
56 57 58 59 59 60 60 60 60 60 59 57 56 54 52 49 47 46 45 43 41 39 37 35 34 32 31 30 29 28 27 25 23 22 21 19 17 15 13 12 12 11 12 13
60 60 61 61 60 60 60 60 59 58 56 55 53 51 49 47 45 43 41 38 36 34 33 31 29 28 27 26 26 25 24 22 21 20 20 18 16 14 12 11 10 9 10 11
63 63 63 63 62 62 61 60 58 57 55 53 51 49 47 45 42 40 37 35 33 32 29 27 26 25 25 24 23 23 22 20 19 19 18 17 15 13 11 9 8 8 8 8
64 64 64 64 63 63 62 61 59 57 55 52 50 48 45 43 40 37 34 33 31 29 27 25 23 22 22 21 21 21 20 18 18 18 17 16 14 12 10 8 7 6 6 6
Wind_Direction
297 296 296 299 304 308 314 324 328 331 335 337 334 332 332 330 328 329 329 330 330 330 332 333 334 334 334 335 335 334 333 332 331 328 325 322 318 315 311 308 305 301 297 294
292 291 294 296 298 300 306 316 322 327 331 329 326 326 326 326 326 326 328 329 330 331 333 334 335 335 335 335 335 335 334 333 332 330 326 323 320 317 314 311 307 304 301 298
296 295 297 292 290 293 300 310 318 323 324 321 320 321 322 322 322 324 326 328 330 332 333 334 335 335 335 335 335 335 334 334 333 331 328 325 322 319 316 313 310 308 305 302
305 302 301 293 295 297 300 307 314 316 316 317 317 317 318 319 321 323 325 328 330 332 333 333 333 334 334 334 335 335 335 334 334 332 330 326 323 321 319 316 314 312 309 305
308 307 303 303 305 302 302 307 313 314 316 316 315 317 319 320 321 323 325 328 330 331 332 332 332 333 333 334 334 335 335 335 334 333 331 328 325 323 321 319 317 315 312 309
311 311 311 317 310 305 306 311 313 314 315 315 316 318 319 319 321 323 325 327 328 329 330 330 331 331 332 333 333 335 336 336 335 334 332 329 327 325 323 322 320 318 316 313
317 319 321 322 316 313 315 316 316 316 315 312 313 314 316 318 320 323 324 325 326 328 329 329 330 331 331 332 333 335 336 337 336 335 334 331 330 328 327 325 323 321 320 317
313 315 315 316 315 316 317 318 317 314 312 310 311 313 315 317 320 321 323 324 326 327 328 329 329 330 331 332 333 335 337 337 337 336 335 334 333 332 331 329 327 325 324 322
301 304 307 310 313 315 316 315 313 312 310 310 311 313 315 317 319 320 322 323 325 326 327 328 328 329 330 332 334 335 337 338 338 337 336 335 335 335 334 333 332 330 329 328
294 298 302 306 308 309 310 310 310 310 310 310 310 312 313 315 317 319 321 323 324 326 327 327 328 329 330 331 333 335 337 338 339 338 338 337 337 337 337 337 336 334 334 333
287 293 298 300 301 302 304 307 308 308 309 309 309 310 312 314 316 319 321 323 324 326 326 327 328 328 330 331 334 336 337 338 339 339 339 338 338 339 340 340 340 339 340 339
287 292 296 298 299 301 303 305 306 307 306 306 307 309 311 314 316 318 320 322 323 324 325 326 327 329 329 330 333 335 337 338 338 338 339 339 339 341 342 343 343 343 343 344
288 292 294 296 297 299 301 302 304 304 305 306 307 309 312 313 315 317 318 320 321 323 324 325 327 329 329 330 332 334 335 337 338 338 339 339 341 343 344 345 346 347 347 348
285 288 289 291 293 294 296 298 300 301 303 305 306 308 311 312 313 314 316 318 320 321 322 324 325 327 328 328 330 332 334 335 337 338 338 340 341 343 346 347 349 350 350 352
281 283 286 288 290 292 294 295 297 298 300 303 305 307 309 311 311 311 313 315 317 319 320 321 323 325 325 326 328 330 332 333 335 337 338 339 341 344 347 349 351 353 353 354
281 282 284 286 288 291 293 295 297 299 302 304 306 306 307 308 309 309 310 313 315 316 317 318 319 320 322 323 325 327 329 331 333 335 337 338 341 343 346 349 352 354 355 355
283 283 284 286 287 290 292 295 297 299 302 303 304 305 305 306 307 307 309 311 312 312 312 315 316 317 319 320 323 325 327 328 330 333 335 336 339 342 345 348 351 354 356 358
283 282 283 285 287 289 291 293 295 297 300 301 302 303 304 304 305 306 307 309 309 309 310 311 313 313 315 317 320 322 324 325 327 330 333 335 337 341 344 347 350 352 356 358
280 281 282 283 285 287 289 291 294 295 297 298 298 299 301 302 304 305 306 306 307 306 307 309 310 311 313 315 316 318 321 322 325 328 331 333 336 340 343 346 348 352 355 357
280 281 282 283 284 286 287 288 290 291 292 294 295 296 298 300 301 303 304 305 305 304 305 306 307 309 311 312 314 315 317 319 322 325 328 331 334 338 342 345 347 351 356 359
283 283 284 284 284 284 284 285 286 287 288 290 292 294 296 298 299 301 302 302 303 302 303 303 305 306 308 310 312 314 315 317 320 322 325 328 331 335 339 343 348 352 356 0
286 286 286 285 284 283 283 284 284 285 286 288 290 292 294 296 297 298 299 299 299 300 300 300 301 303 305 308 310 312 313 315 318 320 322 324 327 331 336 341 347 353 357 2
285 284 283 281 281 281 281 282 283 284 286 288 289 291 292 294 295 296 297 296 295 296 295 296 297 299 302 304 307 310 312 314 316 317 318 321 323 327 332 337 344 351 357 4
282 281 281 281 282 282 283 284 285 286 287 288 289 290 291 291 292 293 294 293 292 291 291 292 293 295 297 300 303 305 308 311 313 314 315 316 318 322 326 330 338 347 355 3
282 282 282 283 283 284 284 285 285 286 287 287 288 289 289 289 290 290 290 289 287 287 288 289 289 290 292 295 299 303 305 307 310 311 312 312 313 315 319 323 330 338 347 359
285 286 286 286 286 286 286 286 286 286 287 287 287 287 287 287 287 286 285 283 282 281 281 285 287 287 288 291 296 300 302 303 305 307 308 307 307 307 308 309 316 327 338 352
286 287 287 287 287 287 287 287 287 287 286 286 285 284 283 282 282 281 280 278 278 276 275 279 281 282 284 288 292 296 299 299 299 302 304 303 300 297 296 296 302 311 321 338
Height
5862 5861 5859 5858 5857 5855 5853 5851 5850 5847 5845 5843 5840 5837 5834 5830 5826 5822 5817 5813 5808 5802 5796 5789 5782 5774 5767 5759 5752 5744 5736 5727 5719 5711 5702 5694 5687 5679 5672 5666 5660 5654 5649 5645
5859 5858 5857 5856 5854 5853 5851 5849 5846 5845 5843 5840 5837 5834 5830 5826 5822 5818 5813 5809 5803 5797 5790 5783 5776 5768 5761 5753 5745 5737 5728 5720 5711 5702 5694 5685 5677 5670 5662 5655 5649 5643 5637 5632
5857 5855 5854 5853 5851 5850 5848 5846 5844 5842 5841 5837 5834 5830 5826 5823 5818 5814 5809 5804 5798 5791 5784 5777 5770 5762 5755 5747 5738 5730 5721 5712 5703 5694 5685 5676 5668 5660 5652 5645 5638 5631 5625 5619
5853 5853 5851 5851 5848 5846 5844 5843 5841 5839 5836 5833 5829 5826 5823 5819 5814 5809 5804 5799 5792 5786 5779 5771 5764 5756 5748 5740 5732 5723 5714 5704 5695 5686 5676 5667 5659 5650 5642 5634 5627 5620 5613 5607
5850 5848 5847 5847 5844 5843 5841 5839 5837 5834 5831 5827 5823 5820 5817 5813 5808 5804 5799 5793 5786 5780 5773 5766 5758 5750 5742 5733 5725 5715 5706 5697 5687 5678 5668 5659 5650 5641 5633 5625 5617 5609 5602 5595
5846 5844 5843 5844 5841 5838 5837 5834 5832 5829 5825 5821 5817 5814 5812 5807 5803 5798 5793 5787 5781 5774 5767 5760 5752 5743 5735 5727 5718 5708 5699 5689 5679 5670 5660 5650 5641 5632 5623 5615 5607 5599 5592 5584
5841 5839 5838 5838 5835 5834 5832 5830 5827 5823 5820 5816 5812 5809 5806 5801 5797 5792 5787 5781 5775 5768 5761 5753 5745 5737 5728 5720 5711 5701 5692 5682 5672 5662 5652 5642 5633 5623 5615 5606 5598 5590 5582 5574
5836 5835 5835 5832 5830 5828 5827 5823 5821 5817 5814 5810 5807 5803 5800 5795 5791 5786 5781 5775 5768 5761 5754 5746 5738 5730 5722 5713 5704 5694 5685 5675 5664 5654 5644 5635 5625 5616 5607 5598 5589 5581 5572 5565
5833 5833 5830 5826 5824 5822 5820 5817 5815 5811 5808 5804 5801 5797 5793 5789 5785 5780 5774 5768 5761 5754 5747 5739 5731 5723 5715 5706 5697 5687 5678 5668 5657 5647 5637 5628 5618 5609 5600 5591 5582 5573 5565 5557
5827 5826 5824 5821 5818 5816 5813 5811 5808 5805 5802 5798 5795 5791 5787 5783 5778 5773 5767 5761 5754 5747 5740 5732 5725 5716 5708 5699 5690 5681 5671 5661 5651 5641 5631 5621 5612 5603 5594 5585 5576 5567 5559 5552
5821 5820 5818 5816 5813 5810 5807 5804 5801 5798 5795 5792 5789 5785 5781 5776 5771 5765 5759 5753 5746 5739 5732 5725 5718 5709 5701 5693 5684 5674 5665 5655 5645 5636 5626 5616 5607 5598 5589 5580 5571 5563 5555 5548
5814 5813 5810 5808 5805 5802 5799 5796 5794 5791 5788 5785 5782 5778 5773 5768 5763 5757 5751 5745 5739 5732 5725 5718 5710 5702 5694 5686 5677 5668 5659 5650 5640 5631 5621 5612 5603 5594 5584 5576 5567 5559 5552 5545
5806 5804 5802 5800 5797 5794 5792 5789 5786 5783 5781 5777 5774 5770 5765 5760 5754 5748 5743 5737 5731 5724 5717 5710 5703 5695 5687 5679 5671 5662 5653 5645 5636 5626 5617 5608 5599 5591 5582 5573 5565 5557 5550 5543
5798 5796 5794 5792 5789 5787 5784 5782 5778 5775 5772 5769 5765 5761 5757 5751 5746 5740 5734 5728 5722 5716 5709 5702 5695 5688 5680 5672 5664 5656 5648 5639 5631 5622 5613 5605 5596 5588 5579 5571 5564 5556 5549 5542
5790 5788 5786 5783 5781 5778 5775 5773 5770 5767 5763 5760 5756 5752 5747 5742 5737 5731 5725 5719 5713 5707 5701 5694 5687 5680 5672 5665 5657 5650 5642 5634 5626 5617 5609 5601 5593 5585 5577 5570 5562 5555 5548 5542
5782 5779 5777 5774 5772 5769 5766 5763 5759 5756 5753 5750 5746 5741 5737 5732 5727 5721 5715 5709 5704 5698 5692 5685 5678 5672 5665 5658 5651 5643 5636 5629 5621 5614 5606 5598 5591 5583 5576 5569 5562 5555 5549 5542
5772 5769 5767 5765 5762 5759 5756 5752 5749 5746 5742 5739 5735 5730 5726 5721 5716 5710 5705 5699 5694 5688 5682 5676 5669 5663 5657 5650 5643 5637 5630 5623 5616 5609 5602 5595 5588 5581 5574 5568 5561 5555 5549 5543
5760 5758 5755 5753 5751 5748 5745 5742 5738 5735 5731 5727 5724 5719 5714 5710 5705 5700 5694 5689 5683 5677 5672 5666 5660 5654 5648 5642 5636 5630 5624 5617 5611 5605 5599 5592 5586 5579 5573 5567 5561 5555 5549 5543
5747 5745 5743 5741 5739 5736 5733 5729 5726 5722 5718 5715 5711 5707 5702 5697 5693 5688 5683 5677 5671 5666 5661 5656 5650 5644 5639 5633 5628 5623 5617 5612 5606 5601 5595 5589 5583 5577 5572 5566 5560 5555 5549 5543
5735 5734 5731 5729 5726 5723 5720 5716 5713 5709 5704 5700 5697 5692 5688 5684 5680 5675 5670 5665 5660 5654 5650 5645 5640 5635 5630 5625 5620 5615 5610 5606 5601 5596 5591 5586 5580 5575 5570 5565 5560 5555 5549 5544
5723 5721 5719 5716 5713 5709 5706 5702 5698 5694 5690 5686 5682 5678 5674 5671 5667 5662 5657 5653 5648 5642 5638 5634 5630 5625 5621 5617 5612 5608 5604 5600 5595 5591 5587 5582 5577 5573 5568 5564 5559 5554 5550 5545
5708 5706 5703 5700 5697 5693 5689 5685 5681 5678 5674 5671 5667 5663 5660 5656 5652 5648 5644 5640 5635 5631 5627 5623 5619 5616 5612 5609 5605 5601 5597 5594 5590 5586 5582 5578 5574 5570 5566 5563 5559 5554 5550 5546
5691 5688 5685 5681 5678 5674 5671 5667 5664 5661 5658 5654 5651 5648 5644 5641 5637 5634 5631 5627 5622 5619 5615 5612 5609 5606 5603 5600 5597 5594 5591 5588 5584 5581 5578 5575 5571 5568 5564 5561 5558 5554 5551 5547
5671 5668 5664 5661 5658 5655 5652 5649 5646 5643 5640 5637 5634 5631 5628 5626 5623 5619 5616 5613 5609 5606 5603 5601 5598 5596 5594 5592 5589 5587 5584 5581 5579 5576 5573 5571 5568 5565 5562 5560 5557 5554 5551 5547
5651 5648 5645 5642 5639 5636 5633 5630 5627 5625 5622 5620 5617 5614 5612 5609 5608 5606 5602 5600 5597 5594 5592 5590 5588 5587 5585 5584 5582 5580 5578 5575 5573 5571 5569 5566 5564 5562 5560 5558 5555 5553 5551 5548
5629 5627 5624 5620 5617 5615 5612 5610 5608 5605 5603 5601 5600 5597 5595 5594 5592 5591 5589 5587 5585 5583 5582 5581 5579 5578 5577 5576 5574 5573 5571 5569 5568 5566 5564 5562 5561 5559 5557 5555 5554 5552 5550 5548
5609 5606 5602 5599 5596 5593 5591 5589 5587 5585 5583 5582 5581 5580 5578 5578 5577 5576 5575 5574 5573 5572 5571 5571 5570 5570 5569 5568 5567 5566 5565 5564 5563 5561 5560 5558 5557 5555 5554 5553 5552 5550 5549 5548